FW4650 Weather Reports


time (UTC)temp
C
wind
direction
speed
KPH
gust
KPH
rain 1hr
cm
rain 24hr
cm
rain mn
cm
humidity
%
barometer
mb
20260507034515 5 343 1.6 6.4 0.00 0.00 0.00
20260507033515 5 325 1.6 9.7 0.00 0.00 0.00
20260507032515 5 337 0.0 8.0 0.00 0.00 0.00
20260507031515 5 336 1.6 9.7 0.00 0.00 0.00
20260507030515 5 0.0 0.0 0.00 0.00 0.00
20260507025515 5 0.0 0.0 0.00 0.00 0.00
20260507024555 5 304 0.0 6.4 0.00 0.00 0.00
20260507023515 5 0.0 0.0 0.00 0.00 0.00
20260507022515 6 340 0.0 8.0 0.00 0.00 0.00
20260507021515 5 335 0.0 9.7 0.00 0.00 0.00
20260507020515 6 0.0 0.0 0.00 0.00 0.00
20260507015515 6 330 0.0 4.8 0.00 0.00 0.00
20260507014515 6 0.0 0.0 0.00 0.00 0.00
20260507013515 6 0.0 0.0 0.00 0.00 0.00
20260507012515 6 0.0 0.0 0.00 0.00 0.00
20260507011515 6 0.0 0.0 0.00 0.00 0.00
20260507010515 6 328 0.0 8.0 0.00 0.00 0.00
20260507005535 6 335 4.8 12.9 0.00 0.00 0.00
20260507004515 6 329 8.0 12.9 0.00 0.00 0.00
20260507003515 6 329 6.4 14.5 0.00 0.00 0.00
20260507002535 6 320 6.4 12.9 0.00 0.00 0.00
20260507001535 6 321 6.4 11.3 0.00 0.00 0.00
20260507000515 6 311 3.2 9.7 0.00 0.00 0.00
20260506235515 6 317 4.8 9.7 0.00 0.00 0.00
20260506234535 6 328 4.8 9.7 0.00 0.00 0.00
20260506233515 6 321 4.8 9.7 0.00 0.00 0.00
20260506232515 6 323 4.8 9.7 0.00 0.00 0.00
20260506231515 6 333 6.4 12.9 0.00 0.00 0.00
20260506230515 6 330 8.0 11.3 0.00 0.00 0.00
20260506225515 6 331 6.4 11.3 0.00 0.00 0.00
20260506224515 7 329 6.4 11.3 0.00 0.00 0.00
20260506223515 7 331 8.0 14.5 0.00 0.00 0.00
20260506222515 7 333 9.7 16.1 0.00 0.00 0.00
20260506221515 7 340 11.3 17.7 0.00 0.00 0.00
20260506220515 7 341 11.3 14.5 0.00 0.00 0.00
20260506215515 7 342 11.3 17.7 0.00 0.00 0.00
20260506214515 7 342 11.3 17.7 0.00 0.00 0.00
20260506213515 7 343 14.5 19.3 0.00 0.00 0.00
20260506212515 7 345 14.5 19.3 0.00 0.00 0.00
20260506211535 7 351 12.9 17.7 0.00 0.00 0.00
20260506210515 8 344 14.5 19.3 0.00 0.00 0.00
20260506205515 8 353 12.9 19.3 0.00 0.00 0.00
20260506204516 8 354 16.1 20.9 0.00 0.00 0.00
20260506203515 8 354 16.1 22.5 0.00 0.00 0.00
20260506202535 8 353 16.1 20.9 0.00 0.00 0.00
20260506201515 8 346 14.5 17.7 0.00 0.00 0.00
20260506200515 8 355 14.5 19.3 0.00 0.00 0.00
20260506195535 8 352 17.7 24.1 0.00 0.00 0.00
20260506194515 8 360 17.7 24.1 0.00 0.00 0.00
20260506193535 9 1 19.3 25.7 0.00 0.00 0.00
20260506192515 9 357 19.3 22.5 0.00 0.00 0.00
20260506191515 10 11 19.3 24.1 0.00 0.00 0.00
20260506190535 10 11 17.7 24.1 0.00 0.00 0.00
20260506185535 10 0 19.3 25.7 0.00 0.00 0.00
20260506184515 10 352 22.5 30.6 0.00 0.00 0.00
20260506183515 10 352 22.5 30.6 0.00 0.00 0.00
20260506182515 11 355 20.9 25.7 0.00 0.00 0.00
20260506181516 11 356 20.9 29.0 0.00 0.00 0.00
20260506180515 11 2 25.7 33.8 0.00 0.00 0.00
20260506175515 11 1 27.4 35.4 0.00 0.00 0.00
20260506174515 11 4 29.0 37.0 0.00 0.00 0.00
20260506173515 12 356 27.4 37.0 0.00 0.00 0.00
20260506172515 12 1 24.1 32.2 0.00 0.00 0.00
20260506171515 12 1 25.7 35.4 0.00 0.00 0.00
20260506170535 12 2 27.4 37.0 0.00 0.00 0.00
20260506165515 12 359 30.6 40.2 0.00 0.00 0.00
20260506164515 12 2 27.4 35.4 0.00 0.00 0.00
20260506163515 12 6 32.2 40.2 0.00 0.00 0.00
20260506162515 13 3 29.0 38.6 0.00 0.00 0.00
20260506161515 12 1 30.6 38.6 0.00 0.00 0.00
20260506160515 12 2 29.0 35.4 0.00 0.00 0.00
20260506155515 12 359 29.0 38.6 0.00 0.00 0.00
20260506154515 12 2 27.4 38.6 0.00 0.00 0.00
20260506153515 12 356 30.6 38.6 0.00 0.00 0.00
20260506152515 13 6 30.6 38.6 0.00 0.00 0.00
20260506151515 13 1 30.6 40.2 0.00 0.00 0.00
20260506150515 13 0 30.6 38.6 0.00 0.00 0.00
20260506145515 13 3 29.0 35.4 0.00 0.00 0.00
20260506144515 13 1 30.6 43.5 0.00 0.00 0.00
20260506143515 13 8 29.0 37.0 0.00 0.00 0.00
20260506142515 13 3 30.6 40.2 0.00 0.00 0.00
20260506141515 13 6 29.0 41.8 0.00 0.00 0.00
20260506140515 13 7 30.6 38.6 0.00 0.00 0.00
20260506135535 14 3 27.4 38.6 0.00 0.00 0.00
20260506134515 13 7 32.2 40.2 0.00 0.00 0.00
20260506133515 14 6 32.2 41.8 0.00 0.00 0.00
20260506132515 14 7 29.0 40.2 0.00 0.00 0.00
20260506131515 14 16 29.0 38.6 0.00 0.00 0.00
20260506130515 15 15 30.6 40.2 0.00 0.00 0.00
20260506125535 15 8 29.0 35.4 0.00 0.00 0.00
20260506124515 14 13 33.8 45.1 0.00 0.00 0.00
20260506123535 14 7 30.6 43.5 0.00 0.00 0.00
20260506122555 15 5 29.0 46.7 0.00 0.00 0.00
20260506121515 15 18 27.4 37.0 0.00 0.00 0.00
20260506120515 14 18 29.0 37.0 0.00 0.00 0.00
20260506115535 15 12 30.6 41.8 0.00 0.00 0.00
20260506114515 14 25 35.4 43.5 0.00 0.00 0.00
20260506113515 15 18 32.2 40.2 0.00 0.00 0.00
20260506112515 15 10 29.0 38.6 0.00 0.00 0.00
20260506111516 15 10 29.0 35.4 0.00 0.00 0.00
20260506110515 15 6 25.7 35.4 0.00 0.00 0.00
20260506105515 15 28 30.6 40.2 0.00 0.00 0.00
20260506104515 14 37 30.6 38.6 0.00 0.00 0.00
20260506103515 14 26 29.0 37.0 0.00 0.00 0.00
20260506102515 15 19 29.0 38.6 0.00 0.00 0.00
20260506101535 14 27 29.0 37.0 0.00 0.00 0.00
20260506100515 14 23 29.0 35.4 0.00 0.00 0.00
20260506095515 14 28 29.0 37.0 0.00 0.00 0.00
20260506094515 14 15 29.0 38.6 0.00 0.00 0.00
20260506093515 14 15 30.6 37.0 0.00 0.00 0.00
20260506092515 14 24 27.4 37.0 0.00 0.00 0.00
20260506091515 15 18 25.7 33.8 0.00 0.00 0.00
20260506090515 14 17 30.6 38.6 0.00 0.00 0.00
20260506085515 15 15 27.4 33.8 0.00 0.00 0.00
20260506084515 14 16 27.4 35.4 0.00 0.00 0.00
20260506083515 13 25 29.0 40.2 0.00 0.00 0.00
20260506082515 14 12 25.7 32.2 0.00 0.00 0.00
20260506081515 14 9 24.1 32.2 0.00 0.00 0.00
20260506080515 13 14 27.4 32.2 0.00 0.00 0.00
20260506073515 12 8 24.1 29.0 0.00 0.00 0.00
20260506072515 12 14 25.7 33.8 0.00 0.00 0.00
20260506071515 12 11 24.1 29.0 0.00 0.00 0.00
20260506070555 11 9 24.1 32.2 0.00 0.00 0.00
20260506062515 11 13 25.7 32.2 0.00 0.00 0.00
20260506061515 12 13 27.4 37.0 0.00 0.00 0.00
20260506060515 16 9 22.5 30.6 0.00 0.00 0.00
20260506050515 11 352 9.7 16.1 0.00 0.00 0.00
20260506044515 10 0 12.9 20.9 0.00 0.00 0.00
20260506043636 9 1 14.5 20.9 0.00 0.00 0.00
20260506042515 9 4 16.1 24.1 0.00 0.00 0.00
20260506041515 9 4 22.5 29.0 0.00 0.00 0.00
20260506040535 9 359 20.9 27.4 0.00 0.00 0.00
20260506035515 9 353 16.1 24.1 0.00 0.00 0.00